Location: Unspecified
(0.0000°N, 0.0000°E)
Time: 14:35:57
(UTC+00:00)

Cosmos 80 Rocket - Pass Details

Date: 27 September 2021
Orbit: 1361 x 1510 km, 56.1° (Epoch: 15 October)

Event Time Altitude Azimuth Distance (km) Brightness Sun altitude
Rises 18:46:51 0° 358° (N) 4,596 8.0 -14.0°
Reaches altitude 10° 18:51:02 10° 15° (NNE) 3,596 7.3 -15.0°
Maximum altitude 18:56:57 19° 57° (ENE) 2,894 6.4 -16.5°
Enters shadow 18:57:53 19° 65° (ENE) 2,908 6.4 -16.8°
